When you browse on this site, cookies collect data to enhance your experience and personalize the content and advertising you see.
Visit our Privacy Policy to learn more. By continuing to use the site, you agree to this use of cookies and data.
  • în România
  • Lista ţărilor
  • Pe 7 zile
  • Temperatura apei
  • Hartă satelitară
  • Meteo pe hartă
  • Widget-uri
  • user-avatar
    Intrare

    Meteo pe oră la Koscielec

    Astăzi, 25 Mai, Sâmbătă

    Timp Temperatura Precipitaţii Vânt Presiune Umiditate
    00:00 +1°C° 0 mm 1 m/s 592 mmHg 96%
    01:00 +1°C° 0 mm 1 m/s 592 mmHg 96%
    02:00 +1°C° 0 mm 1 m/s 592 mmHg 96%
    03:00 0°C° 0 mm 0 m/s 592 mmHg 96%
    04:00 -1°C° 0 mm 0 m/s 592 mmHg 96%
    05:00 +1°C° 0 mm 0 m/s 593 mmHg 92%
    06:00 +4°C° 0 mm 1 m/s 594 mmHg 87%
    07:00 +6°C° 0 mm 1 m/s 595 mmHg 82%
    08:00 +7°C° 0 mm 1 m/s 596 mmHg 72%
    09:00 +9°C° 0 mm 1 m/s 596 mmHg 62%
    10:00 +10°C° 0 mm 1 m/s 597 mmHg 52%
    11:00 +10°C° 0 mm 2 m/s 597 mmHg 49%
    12:00 +10°C° 0 mm 2 m/s 598 mmHg 46%
    13:00 +12°C° 0 mm 2 m/s 598 mmHg 43%
    14:00 +12°C° 0 mm 2 m/s 597 mmHg 45%
    15:00 +10°C° 0 mm 2 m/s 597 mmHg 47%
    16:00 +10°C° 0 mm 2 m/s 597 mmHg 49%
    17:00 +8°C° 0 mm 2 m/s 596 mmHg 58%
    18:00 +7°C° 0 mm 1 m/s 595 mmHg 68%
    19:00 +5°C° 0 mm 1 m/s 594 mmHg 78%
    20:00 +4°C° 0 mm 1 m/s 594 mmHg 80%
    21:00 +3°C° 0 mm 1 m/s 594 mmHg 83%
    22:00 +2°C° 0 mm 1 m/s 593 mmHg 86%
    23:00 +2°C° 0 mm 1 m/s 593 mmHg 86%

    Mâine, 26 Mai, Duminică

    Timp Temperatura Precipitaţii Vânt Presiune Umiditate
    00:00 +2°C° 0 mm 1 m/s 593 mmHg 87%
    01:00 +2°C° 0 mm 1 m/s 593 mmHg 88%
    02:00 +2°C° 0 mm 1 m/s 593 mmHg 88%
    03:00 +2°C° 0 mm 1 m/s 593 mmHg 89%
    04:00 +2°C° 0 mm 1 m/s 593 mmHg 89%
    05:00 +4°C° 0 mm 1 m/s 595 mmHg 81%
    06:00 +6°C° 0 mm 1 m/s 596 mmHg 73%
    07:00 +8°C° 0 mm 1 m/s 597 mmHg 65%
    08:00 +10°C° 0 mm 1 m/s 597 mmHg 61%
    09:00 +11°C° 0 mm 1 m/s 598 mmHg 57%
    10:00 +12°C° 0 mm 2 m/s 599 mmHg 53%
    11:00 +12°C° 0.8 mm 2 m/s 598 mmHg 62%
    12:00 +10°C° 0.8 mm 2 m/s 598 mmHg 71%
    13:00 +9°C° 0.8 mm 2 m/s 597 mmHg 80%
    14:00 +9°C° 0.8 mm 2 m/s 597 mmHg 82%
    15:00 +9°C° 0.8 mm 2 m/s 597 mmHg 83%
    16:00 +9°C° 0.8 mm 2 m/s 597 mmHg 85%
    17:00 +8°C° 0.2 mm 2 m/s 596 mmHg 88%
    18:00 +7°C° 0.2 mm 2 m/s 596 mmHg 91%
    19:00 +7°C° 0.2 mm 1 m/s 595 mmHg 95%
    20:00 +6°C° 0.1 mm 1 m/s 595 mmHg 96%
    21:00 +5°C° 0.1 mm 1 m/s 595 mmHg 96%
    22:00 +4°C° 0.1 mm 1 m/s 595 mmHg 97%
    23:00 +4°C° 0.1 mm 1 m/s 594 mmHg 97%

    Poimâine, 27 Mai, Luni

    Timp Temperatura Precipitaţii Vânt Presiune Umiditate
    00:00 +4°C° 0.1 mm 1 m/s 594 mmHg 97%
    01:00 +4°C° 0.1 mm 1 m/s 594 mmHg 97%
    02:00 +4°C° 0 mm 1 m/s 594 mmHg 96%
    03:00 +4°C° 0 mm 1 m/s 593 mmHg 96%
    04:00 +2°C° 0 mm 2 m/s 593 mmHg 96%
    05:00 +4°C° 0 mm 2 m/s 594 mmHg 93%
    06:00 +6°C° 0 mm 2 m/s 595 mmHg 90%
    07:00 +8°C° 0 mm 2 m/s 596 mmHg 87%
    08:00 +9°C° 0 mm 3 m/s 597 mmHg 77%
    09:00 +10°C° 0 mm 3 m/s 597 mmHg 66%
    10:00 +12°C° 0 mm 3 m/s 598 mmHg 56%
    11:00 +11°C° 0.2 mm 3 m/s 597 mmHg 61%
    12:00 +11°C° 0.2 mm 3 m/s 597 mmHg 66%
    13:00 +11°C° 0.2 mm 3 m/s 597 mmHg 70%
    14:00 +10°C° 0.4 mm 3 m/s 596 mmHg 72%
    15:00 +10°C° 0.4 mm 3 m/s 596 mmHg 74%
    16:00 +10°C° 0.4 mm 2 m/s 596 mmHg 76%
    17:00 +9°C° 0.1 mm 2 m/s 595 mmHg 80%
    18:00 +8°C° 0.1 mm 2 m/s 595 mmHg 84%
    19:00 +8°C° 0.1 mm 1 m/s 594 mmHg 89%
    20:00 +7°C° 0.4 mm 1 m/s 594 mmHg 91%
    21:00 +7°C° 0.4 mm 1 m/s 593 mmHg 93%
    22:00 +6°C° 0.4 mm 1 m/s 593 mmHg 96%
    23:00 +6°C° 2.6 mm 1 m/s 593 mmHg 97%

    28 Mai, Marţi

    Timp Temperatura Precipitaţii Vânt Presiune Umiditate
    00:00 +6°C° 2.6 mm 1 m/s 593 mmHg 97%
    01:00 +6°C° 2.6 mm 1 m/s 593 mmHg 98%
    02:00 +6°C° 0.8 mm 1 m/s 592 mmHg 98%
    03:00 +6°C° 0.8 mm 1 m/s 592 mmHg 98%
    04:00 +5°C° 0.8 mm 2 m/s 592 mmHg 98%
    05:00 +6°C° 0 mm 2 m/s 592 mmHg 95%
    06:00 +7°C° 0 mm 2 m/s 592 mmHg 93%
    07:00 +8°C° 0 mm 3 m/s 593 mmHg 90%
    08:00 +9°C° 0.3 mm 3 m/s 593 mmHg 83%
    09:00 +10°C° 0.3 mm 3 m/s 593 mmHg 77%
    10:00 +12°C° 0.3 mm 2 m/s 594 mmHg 70%
    11:00 +11°C° 1.9 mm 3 m/s 593 mmHg 75%
    12:00 +10°C° 1.9 mm 3 m/s 593 mmHg 80%
    13:00 +9°C° 1.9 mm 3 m/s 592 mmHg 84%
    14:00 +10°C° 1.1 mm 3 m/s 592 mmHg 83%
    15:00 +10°C° 1.1 mm 2 m/s 592 mmHg 82%
    16:00 +10°C° 1.1 mm 2 m/s 592 mmHg 82%
    17:00 +9°C° 0.7 mm 2 m/s 591 mmHg 85%
    18:00 +8°C° 0.7 mm 2 m/s 591 mmHg 89%
    19:00 +6°C° 0.7 mm 2 m/s 590 mmHg 93%
    20:00 +7°C° 1.2 mm 1 m/s 590 mmHg 93%
    21:00 +6°C° 1.2 mm 1 m/s 590 mmHg 94%
    22:00 +6°C° 1.2 mm 1 m/s 590 mmHg 95%
    23:00 +5°C° 0.1 mm 1 m/s 590 mmHg 95%

    29 Mai, Miercuri

    Timp Temperatura Precipitaţii Vânt Presiune Umiditate
    00:00 +4°C° 0.1 mm 0 m/s 590 mmHg 96%
    01:00 +3°C° 0.1 mm 0 m/s 590 mmHg 96%
    02:00 +4°C° 0.9 mm 0 m/s 590 mmHg 97%
    03:00 +4°C° 0.9 mm 0 m/s 591 mmHg 97%
    04:00 +4°C° 0.9 mm 0 m/s 591 mmHg 97%
    05:00 +5°C° 3.7 mm 1 m/s 592 mmHg 98%
    06:00 +4°C° 3.7 mm 1 m/s 592 mmHg 98%
    07:00 +3°C° 3.7 mm 2 m/s 592 mmHg 98%
    08:00 +3°C° 3.1 mm 2 m/s 593 mmHg 98%
    09:00 +2°C° 3.1 mm 2 m/s 593 mmHg 98%
    10:00 +1°C° 3.1 mm 2 m/s 593 mmHg 98%
    11:00 +1°C° 1.4 mm 2 m/s 593 mmHg 97%
    12:00 +1°C° 1.4 mm 2 m/s 594 mmHg 97%
    13:00 0°C° 1.4 mm 3 m/s 594 mmHg 97%
    14:00 0°C° 0.1 mm 3 m/s 595 mmHg 95%
    15:00 0°C° 0.1 mm 3 m/s 595 mmHg 93%
    16:00 +1°C° 0.1 mm 3 m/s 595 mmHg 91%
    17:00 0°C° 0.1 mm 3 m/s 595 mmHg 91%
    18:00 0°C° 0.1 mm 3 m/s 596 mmHg 92%
    19:00 -1°C° 0.1 mm 2 m/s 596 mmHg 92%
    20:00 -1°C° 0.1 mm 2 m/s 596 mmHg 94%
    21:00 -1°C° 0.1 mm 2 m/s 596 mmHg 95%
    22:00 -1°C° 0.1 mm 2 m/s 597 mmHg 96%
    23:00 -1°C° 0 mm 2 m/s 597 mmHg 96%

    30 Mai, Joi

    Timp Temperatura Precipitaţii Vânt Presiune Umiditate
    00:00 -1°C° 0 mm 2 m/s 597 mmHg 96%
    01:00 -2°C° 0 mm 2 m/s 597 mmHg 96%
    02:00 -2°C° 0.1 mm 2 m/s 597 mmHg 96%
    03:00 -2°C° 0.1 mm 2 m/s 597 mmHg 96%
    04:00 -2°C° 0.1 mm 2 m/s 597 mmHg 96%
    05:00 -2°C° 1.2 mm 2 m/s 597 mmHg 97%
    06:00 -2°C° 1.2 mm 2 m/s 597 mmHg 97%
    07:00 -2°C° 1.2 mm 2 m/s 597 mmHg 97%
    08:00 -2°C° 2 mm 2 m/s 597 mmHg 97%
    09:00 -2°C° 2 mm 2 m/s 597 mmHg 96%
    10:00 -2°C° 2 mm 2 m/s 597 mmHg 96%
    11:00 -1°C° 0.3 mm 2 m/s 598 mmHg 91%
    12:00 +1°C° 0.3 mm 2 m/s 598 mmHg 86%
    13:00 +3°C° 0.3 mm 1 m/s 598 mmHg 81%
    14:00 +3°C° 0 mm 1 m/s 599 mmHg 79%
    15:00 +4°C° 0 mm 1 m/s 599 mmHg 77%
    16:00 +4°C° 0 mm 1 m/s 599 mmHg 75%
    17:00 +3°C° 0 mm 1 m/s 598 mmHg 79%
    18:00 +2°C° 0 mm 1 m/s 598 mmHg 83%
    19:00 +2°C° 0 mm 1 m/s 597 mmHg 87%
    20:00 +1°C° 0 mm 1 m/s 597 mmHg 89%
    21:00 -1°C° 0 mm 0 m/s 597 mmHg 91%
    22:00 -1°C° 0 mm 0 m/s 596 mmHg 93%
    23:00 -1°C° 0 mm 0 m/s 596 mmHg 92%
    Arată mai mult